This is the latest recevied weather packets stored in our database for station/object K6CQU-13. If no packets are shown the sender has not sent any weather packets the latest 10 day(s).
| Time | Temp. | Humidity | Pressure | Rain* | Wind** | Luminosity | Snow |
|---|---|---|---|---|---|---|---|
| 1777737017 | 16.67° C | 74% | 1012.3 hPa | 0 mm | - | 373 W/m² | - |
| 1777736717 | 16.11° C | 76% | 1012.2 hPa | 0 mm | - | 301 W/m² | - |
| 1777736416 | 16.11° C | 77% | 1012.2 hPa | 0 mm | - | 277 W/m² | - |
| 1777736117 | 16.11° C | 77% | 1012.1 hPa | 0 mm | - | 260 W/m² | - |
| 1777735816 | 15.56° C | 78% | 1012.1 hPa | 0 mm | - | 242 W/m² | - |
| 1777735517 | 15.56° C | 79% | 1012.1 hPa | 0 mm | - | 227 W/m² | - |
| 1777735217 | 15° C | 80% | 1012 hPa | 0 mm | - | 218 W/m² | - |
| 1777734916 | 15° C | 80% | 1012 hPa | 0 mm | - | 226 W/m² | - |
| 1777734616 | 15° C | 80% | 1011.9 hPa | 0 mm | - | 199 W/m² | - |
| 1777734316 | 15° C | 81% | 1011.9 hPa | 0 mm | - | 182 W/m² | - |
| 1777734016 | 14.44° C | 82% | 1011.9 hPa | 0 mm | - | 171 W/m² | - |
| 1777733716 | 14.44° C | 83% | 1011.8 hPa | 0 mm | - | 173 W/m² | - |
| 1777733416 | 14.44° C | 85% | 1011.8 hPa | 0 mm | - | 175 W/m² | - |
| 1777733117 | 13.89° C | 86% | 1011.9 hPa | 0 mm | - | 175 W/m² | - |
| 1777732816 | 13.89° C | 86% | 1012 hPa | 0 mm | - | 179 W/m² | - |
| 1777732517 | 13.33° C | 87% | 1012 hPa | 0 mm | - | 161 W/m² | - |
| 1777732216 | 13.33° C | 88% | 1012 hPa | 0 mm | - | 147 W/m² | - |
| 1777731916 | 13.33° C | 89% | 1012 hPa | 0 mm | - | 119 W/m² | - |
| 1777731617 | 12.78° C | 89% | 1011.9 hPa | 0 mm | - | 94 W/m² | - |
| 1777731316 | 12.78° C | 89% | 1011.9 hPa | 0 mm | - | 80 W/m² | - |
| 1777731016 | 12.78° C | 89% | 1011.8 hPa | 0 mm | - | 70 W/m² | - |
| 1777730716 | 12.78° C | 89% | 1011.8 hPa | 0 mm | - | 59 W/m² | - |
| 1777730416 | 12.78° C | 88% | 1011.7 hPa | 0 mm | - | 47 W/m² | - |
| 1777730117 | 12.78° C | 88% | 1011.7 hPa | 0 mm | - | 36 W/m² | - |
| 1777729816 | 12.22° C | 88% | 1011.6 hPa | 0 mm | - | 29 W/m² | - |
* Rain latest hour (hover to see other rain measurements)
** Current wind speed in m/s (hover to see current wind gust speed)